RUK1104 LEPA-EGCC

Flight info

Callsign RUK1104
Flight time 2h 15m
Altitude 34000
Route DRAGO DCT PAPOS DCT UMURE N863 GIROM DCT AGN DCT SECHE DCT UVELI DCT CNA DCT TUPAR UN861 ANG DCT AKIKI UN867 AVANT UM184 HEMEL T420 ELVOS
Aircraft B738/M-SDE1E2E3FGIJ1LRWY/SB1

Departure

Time 2026-05-04 15:54
Airport Palma de Mallorca Airport (LEPA)

Arrival

Time 2026-05-04 18:10
Airport Manchester Airport (EGCC)
Time Latitude Longitude Altitude Speed Heading
2026-05-04 15:22 39.55000 2.72669 36 ft 0 kts 146°
2026-05-04 15:44 39.55011 2.72660 37 ft 4 kts 146°
2026-05-04 15:44 39.55029 2.72644 36 ft 4 kts 135°
2026-05-04 15:44 39.55041 2.72616 36 ft 4 kts 93°
2026-05-04 15:45 39.55036 2.72584 34 ft 4 kts 62°
2026-05-04 15:45 39.55024 2.72555 37 ft 3 kts 61°
2026-05-04 15:45 39.55014 2.72531 36 ft 4 kts 60°
2026-05-04 15:45 39.55000 2.72501 36 ft 4 kts 59°
2026-05-04 15:46 39.54992 2.72483 37 ft 0 kts 59°
2026-05-04 15:48 39.54996 2.72492 36 ft 3 kts 59°
2026-05-04 15:48 39.55048 2.72542 36 ft 6 kts 345°
2026-05-04 15:49 39.55085 2.72512 37 ft 8 kts 334°
2026-05-04 15:49 39.55143 2.72482 35 ft 10 kts 353°
2026-05-04 15:49 39.55199 2.72539 37 ft 12 kts 59°
2026-05-04 15:49 39.55248 2.72643 37 ft 15 kts 58°
2026-05-04 15:50 39.55312 2.72778 37 ft 20 kts 59°
2026-05-04 15:50 39.55388 2.72939 37 ft 22 kts 58°
2026-05-04 15:50 39.55471 2.73113 37 ft 23 kts 58°
2026-05-04 15:50 39.55550 2.73288 36 ft 22 kts 59°
2026-05-04 15:51 39.55635 2.73451 37 ft 22 kts 56°
2026-05-04 15:51 39.55717 2.73627 37 ft 24 kts 57°
2026-05-04 15:51 39.55810 2.73822 36 ft 27 kts 60°
2026-05-04 15:51 39.55906 2.74031 37 ft 26 kts 58°
2026-05-04 15:52 39.55996 2.74230 37 ft 25 kts 59°
2026-05-04 15:52 39.56085 2.74410 36 ft 20 kts 56°
2026-05-04 15:52 39.56142 2.74453 37 ft 6 kts
2026-05-04 15:52 39.56144 2.74453 37 ft 0 kts 359°
2026-05-04 15:53 39.56146 2.74452 37 ft 1 kts 354°
2026-05-04 15:53 39.56169 2.74442 35 ft 7 kts 339°
2026-05-04 15:53 39.56230 2.74398 37 ft 13 kts 323°
2026-05-04 15:53 39.56238 2.74285 36 ft 16 kts 237°
2026-05-04 15:54 39.56110 2.74019 37 ft 68 kts 238°
2026-05-04 15:54 39.55739 2.73237 39 ft 133 kts 237°
2026-05-04 15:54 39.55168 2.72096 416 ft 150 kts 234°
2026-05-04 15:54 39.54585 2.70957 1287 ft 157 kts 236°
2026-05-04 15:55 39.53944 2.69666 1748 ft 186 kts 236°
2026-05-04 15:55 39.53214 2.68196 2295 ft 196 kts 236°
2026-05-04 15:55 39.52467 2.66698 2963 ft 200 kts 236°
2026-05-04 15:55 39.51705 2.65156 3555 ft 208 kts 240°
2026-05-04 15:56 39.51465 2.63244 3881 ft 229 kts 280°
2026-05-04 15:56 39.52215 2.61373 4468 ft 242 kts 301°
2026-05-04 15:56 39.53258 2.59532 4809 ft 263 kts 303°
2026-05-04 15:56 39.54384 2.57620 5544 ft 269 kts 303°
2026-05-04 15:57 39.55526 2.55694 6492 ft 269 kts 302°
2026-05-04 15:57 39.56665 2.53764 7359 ft 271 kts 302°
2026-05-04 15:57 39.57814 2.51805 8173 ft 275 kts 302°
2026-05-04 15:57 39.58971 2.49824 9042 ft 277 kts 302°
2026-05-04 15:58 39.60136 2.47821 9929 ft 279 kts 301°
2026-05-04 15:58 39.61317 2.45780 10492 ft 292 kts 302°
2026-05-04 15:58 39.62583 2.43577 10665 ft 316 kts 302°
2026-05-04 15:58 39.63910 2.41272 11163 ft 328 kts 302°
2026-05-04 15:59 39.65286 2.38886 11913 ft 331 kts 302°
2026-05-04 15:59 39.66669 2.36490 12730 ft 333 kts 302°
2026-05-04 15:59 39.68066 2.34065 13489 ft 337 kts 302°
2026-05-04 15:59 39.69475 2.31614 14182 ft 341 kts 302°
2026-05-04 16:00 39.70897 2.29139 14897 ft 343 kts 302°
2026-05-04 16:00 39.72325 2.26652 15620 ft 344 kts 302°
2026-05-04 16:00 39.73760 2.24150 16330 ft 347 kts 302°
2026-05-04 16:00 39.75208 2.21621 17036 ft 350 kts 302°
2026-05-04 16:01 39.76665 2.19074 17744 ft 352 kts 301°
2026-05-04 16:01 39.78131 2.16509 18398 ft 355 kts 301°
2026-05-04 16:01 39.79610 2.13919 18972 ft 358 kts 301°
2026-05-04 16:01 39.81100 2.11308 19552 ft 361 kts 301°
2026-05-04 16:02 39.82600 2.08676 20115 ft 364 kts 300°
2026-05-04 16:02 39.84111 2.06024 20685 ft 367 kts 300°
2026-05-04 16:02 39.87173 2.00644 21791 ft 373 kts 300°
2026-05-04 16:03 39.88718 1.97926 22337 ft 376 kts 299°
2026-05-04 16:03 39.90280 1.95175 22852 ft 379 kts 299°
2026-05-04 16:03 39.91853 1.92403 23385 ft 382 kts 299°
2026-05-04 16:03 39.93439 1.89608 23820 ft 385 kts 299°
2026-05-04 16:04 39.95030 1.86802 23872 ft 385 kts 299°
2026-05-04 16:04 39.98214 1.81176 23907 ft 387 kts 299°
2026-05-04 16:04 40.00004 1.78519 23898 ft 396 kts 310°
2026-05-04 16:05 40.02180 1.76269 23903 ft 403 kts 318°
2026-05-04 16:05 40.04664 1.74471 23898 ft 413 kts 329°
2026-05-04 16:05 40.10033 1.71695 23901 ft 416 kts 332°
2026-05-04 16:06 40.12748 1.70355 23899 ft 417 kts 332°
2026-05-04 16:06 40.19944 1.66743 23900 ft 416 kts 331°
2026-05-04 16:07 40.23551 1.64896 23900 ft 416 kts 331°
2026-05-04 16:07 40.31626 1.60727 23900 ft 416 kts 331°
2026-05-04 16:08 40.34315 1.59335 23898 ft 416 kts 331°
2026-05-04 16:08 40.42343 1.55176 23899 ft 415 kts 331°
2026-05-04 16:09 40.47703 1.52394 23901 ft 414 kts 331°
2026-05-04 16:09 40.53057 1.49610 23898 ft 414 kts 331°
2026-05-04 16:10 40.58410 1.46822 23901 ft 414 kts 331°
2026-05-04 16:11 40.66432 1.42634 23896 ft 414 kts 331°
2026-05-04 16:11 40.69114 1.41233 23903 ft 414 kts 331°
2026-05-04 16:12 40.77159 1.37025 23898 ft 415 kts 331°
2026-05-04 16:12 40.85214 1.32803 23908 ft 416 kts 331°
2026-05-04 16:13 40.90590 1.29979 23917 ft 416 kts 331°
2026-05-04 16:13 40.95970 1.27148 23925 ft 416 kts 331°
2026-05-04 16:14 41.01355 1.24310 23932 ft 416 kts 332°
2026-05-04 16:14 41.06737 1.21470 23941 ft 416 kts 332°
2026-05-04 16:15 41.13912 1.17725 23943 ft 419 kts 335°
2026-05-04 16:16 41.19751 1.16432 23950 ft 431 kts 350°
2026-05-04 16:16 41.28843 1.15642 25147 ft 437 kts 350°
2026-05-04 16:17 41.34937 1.15008 25937 ft 443 kts 350°
2026-05-04 16:18 41.44242 1.14040 27065 ft 452 kts 350°
2026-05-04 16:18 41.47384 1.13718 27432 ft 455 kts 350°
2026-05-04 16:19 41.56920 1.12726 28540 ft 462 kts 350°
2026-05-04 16:19 41.63363 1.12008 29235 ft 467 kts 350°
2026-05-04 16:20 41.73098 1.10939 30501 ft 466 kts 350°
2026-05-04 16:20 41.79564 1.10262 31271 ft 466 kts 350°
2026-05-04 16:21 41.89256 1.09249 32393 ft 465 kts 350°
2026-05-04 16:22 41.95703 1.08571 33055 ft 465 kts 350°
2026-05-04 16:22 42.05373 1.07551 33950 ft 468 kts 349°
2026-05-04 16:23 42.15144 1.06518 33932 ft 466 kts 349°
2026-05-04 16:25 42.34424 1.04397 33929 ft 461 kts 349°
2026-05-04 16:26 42.56741 1.01956 33915 ft 461 kts 350°
2026-05-04 16:28 42.72766 1.00213 33939 ft 465 kts 350°
2026-05-04 16:29 42.95464 0.97717 33977 ft 470 kts 350°
2026-05-04 16:31 43.11774 0.95920 33947 ft 469 kts 350°
2026-05-04 16:32 43.31226 0.93760 33944 ft 468 kts 350°
2026-05-04 16:33 43.44168 0.92318 33950 ft 465 kts 351°
2026-05-04 16:34 43.53821 0.91238 33952 ft 463 kts 351°
2026-05-04 16:35 43.73100 0.89071 33946 ft 463 kts 350°
2026-05-04 16:36 43.82743 0.87983 33940 ft 464 kts 350°
2026-05-04 16:37 43.89109 0.86803 33932 ft 457 kts 339°
2026-05-04 16:37 43.92083 0.85373 33928 ft 449 kts 329°
2026-05-04 16:38 44.03304 0.77975 33935 ft 449 kts 328°
2026-05-04 16:39 44.17482 0.68747 33945 ft 450 kts 328°
2026-05-04 16:40 44.28863 0.61336 33939 ft 453 kts 328°
2026-05-04 16:41 44.43056 0.52054 33942 ft 447 kts 328°
2026-05-04 16:43 44.57017 0.42795 33920 ft 442 kts 328°
2026-05-04 16:43 44.65346 0.37243 33934 ft 442 kts 328°
2026-05-04 16:45 44.82102 0.26026 33934 ft 447 kts 328°
2026-05-04 16:46 44.96178 0.16552 33927 ft 450 kts 328°
2026-05-04 16:47 45.07493 0.08898 33923 ft 451 kts 328°
2026-05-04 16:48 45.18825 0.01199 33922 ft 452 kts 327°
2026-05-04 16:49 45.30168 -0.06536 33926 ft 452 kts 327°
2026-05-04 16:50 45.41487 -0.14291 33933 ft 452 kts 326°
2026-05-04 16:51 45.49982 -0.20134 33933 ft 452 kts 326°
2026-05-04 16:52 45.61264 -0.27921 33944 ft 452 kts 326°
2026-05-04 16:53 45.69986 -0.33237 33951 ft 460 kts 335°
2026-05-04 16:54 45.82297 -0.38595 33937 ft 463 kts 336°
2026-05-04 16:55 46.00731 -0.46932 33935 ft 463 kts 335°
2026-05-04 16:56 46.16084 -0.53951 33938 ft 463 kts 336°
2026-05-04 16:57 46.25281 -0.58173 33938 ft 462 kts 336°
2026-05-04 16:58 46.36506 -0.63345 33943 ft 462 kts 336°
2026-05-04 17:00 46.55582 -0.68533 33943 ft 470 kts 349°
2026-05-04 17:01 46.71834 -0.71164 33949 ft 470 kts 348°
2026-05-04 17:02 46.84828 -0.73370 33946 ft 470 kts 348°
2026-05-04 17:03 46.94578 -0.75029 33966 ft 471 kts 348°
2026-05-04 17:03 47.04359 -0.76697 33954 ft 472 kts 348°
2026-05-04 17:04 47.17363 -0.78924 33949 ft 472 kts 348°
2026-05-04 17:05 47.30403 -0.81168 33938 ft 471 kts 349°
2026-05-04 17:06 47.40156 -0.82853 33940 ft 470 kts 349°
2026-05-04 17:07 47.48786 -0.84349 33937 ft 469 kts 349°
2026-05-04 17:07 47.56337 -0.85771 33940 ft 466 kts 346°
2026-05-04 17:08 47.65889 -0.88343 33937 ft 464 kts 345°
2026-05-04 17:09 47.72231 -0.90100 33949 ft 463 kts 346°
2026-05-04 17:09 47.78579 -0.91815 33955 ft 463 kts 346°
2026-05-04 17:10 47.94449 -0.96057 33951 ft 464 kts 346°
2026-05-04 17:11 48.00764 -0.97752 33932 ft 464 kts 346°
2026-05-04 17:12 48.10285 -1.00316 33946 ft 463 kts 346°
2026-05-04 17:13 48.26172 -1.04619 33962 ft 465 kts 346°
2026-05-04 17:14 48.38915 -1.08088 33960 ft 465 kts 347°
2026-05-04 17:15 48.48445 -1.10694 33965 ft 463 kts 347°
2026-05-04 17:16 48.61126 -1.14178 33963 ft 463 kts 347°
2026-05-04 17:17 48.73781 -1.17673 33969 ft 462 kts 347°
2026-05-04 17:18 48.86422 -1.21182 33973 ft 462 kts 347°
2026-05-04 17:19 48.99068 -1.24710 33974 ft 462 kts 347°
2026-05-04 17:20 49.11702 -1.28255 33979 ft 460 kts 348°
2026-05-04 17:20 49.21122 -1.30908 33976 ft 457 kts 348°
2026-05-04 17:21 49.33550 -1.34421 33983 ft 452 kts 348°
2026-05-04 17:22 49.39720 -1.36173 33987 ft 450 kts 348°
2026-05-04 17:23 49.51954 -1.39658 33994 ft 448 kts 349°
2026-05-04 17:24 49.61194 -1.41682 33987 ft 448 kts
2026-05-04 17:25 49.73608 -1.40440 33993 ft 447 kts
2026-05-04 17:26 49.86028 -1.39276 33988 ft 446 kts
2026-05-04 17:27 50.01507 -1.37741 33979 ft 445 kts
2026-05-04 17:28 50.13713 -1.34674 33986 ft 444 kts 10°
2026-05-04 17:29 50.31971 -1.30095 33991 ft 442 kts
2026-05-04 17:31 50.47096 -1.26302 33989 ft 441 kts 12°
2026-05-04 17:31 50.55456 -1.20624 34005 ft 435 kts 34°
2026-05-04 17:32 50.60505 -1.15461 33992 ft 436 kts 35°
2026-05-04 17:33 50.70717 -1.05148 33996 ft 437 kts 34°
2026-05-04 17:34 50.80998 -0.94857 33991 ft 438 kts 31°
2026-05-04 17:35 50.89575 -0.89712 33993 ft 442 kts 18°
2026-05-04 17:35 50.95449 -0.86805 33999 ft 443 kts 18°
2026-05-04 17:36 51.01320 -0.83825 34006 ft 443 kts 19°
2026-05-04 17:36 51.07195 -0.80784 33988 ft 444 kts 19°
2026-05-04 17:37 51.13067 -0.77721 34003 ft 444 kts 19°
2026-05-04 17:37 51.18940 -0.74648 34021 ft 444 kts 19°
2026-05-04 17:38 51.24811 -0.71571 34014 ft 444 kts 19°
2026-05-04 17:38 51.30670 -0.68492 34030 ft 443 kts 19°
2026-05-04 17:39 51.39435 -0.63870 34022 ft 442 kts 18°
2026-05-04 17:39 51.45234 -0.60803 34022 ft 441 kts 18°
2026-05-04 17:40 51.51056 -0.57714 34014 ft 441 kts 18°
2026-05-04 17:40 51.56872 -0.54619 34028 ft 440 kts 18°
2026-05-04 17:41 51.62685 -0.51518 34026 ft 440 kts 18°
2026-05-04 17:41 51.68500 -0.48405 34046 ft 440 kts 18°
2026-05-04 17:42 51.74267 -0.45312 34028 ft 430 kts 18°
2026-05-04 17:42 51.80025 -0.43342 34026 ft 423 kts 354°
2026-05-04 17:43 51.82896 -0.44238 33994 ft 421 kts 338°
2026-05-04 17:43 51.85493 -0.46385 33691 ft 417 kts 325°
2026-05-04 17:43 51.87913 -0.48893 33344 ft 411 kts 325°
2026-05-04 17:43 51.90312 -0.51357 33005 ft 406 kts 326°
2026-05-04 17:44 51.92710 -0.53751 32615 ft 404 kts 326°
2026-05-04 17:44 51.95101 -0.56098 32278 ft 400 kts 327°
2026-05-04 17:44 51.97471 -0.58406 31960 ft 395 kts 327°
2026-05-04 17:44 51.99823 -0.60695 31588 ft 393 kts 327°
2026-05-04 17:45 52.02154 -0.62968 31243 ft 390 kts 327°
2026-05-04 17:45 52.04470 -0.65231 30893 ft 387 kts 327°
2026-05-04 17:45 52.06771 -0.67483 30547 ft 385 kts 327°
2026-05-04 17:45 52.09053 -0.69720 30203 ft 382 kts 327°
2026-05-04 17:46 52.11323 -0.71950 29812 ft 380 kts 327°
2026-05-04 17:46 52.13580 -0.74169 29448 ft 377 kts 326°
2026-05-04 17:46 52.15808 -0.76373 29129 ft 373 kts 326°
2026-05-04 17:46 52.17276 -0.77829 28877 ft 372 kts 326°
2026-05-04 17:47 52.19478 -0.80012 28521 ft 369 kts 326°
2026-05-04 17:47 52.21663 -0.82182 28163 ft 367 kts 326°
2026-05-04 17:47 52.23834 -0.84340 27809 ft 365 kts 326°
2026-05-04 17:47 52.25997 -0.86489 27462 ft 363 kts 326°
2026-05-04 17:48 52.28150 -0.88624 27102 ft 361 kts 326°
2026-05-04 17:48 52.30291 -0.90747 26754 ft 360 kts 326°
2026-05-04 17:48 52.32425 -0.92865 26399 ft 358 kts 325°
2026-05-04 17:48 52.34551 -0.94977 26049 ft 357 kts 325°
2026-05-04 17:49 52.36669 -0.97085 25701 ft 356 kts 325°
2026-05-04 17:49 52.38779 -0.99187 25360 ft 355 kts 324°
2026-05-04 17:49 52.40884 -1.01286 25011 ft 354 kts 324°
2026-05-04 17:49 52.42982 -1.03380 24656 ft 353 kts 324°
2026-05-04 17:50 52.45079 -1.05475 24303 ft 352 kts 324°
2026-05-04 17:50 52.47169 -1.07568 23948 ft 352 kts 324°
2026-05-04 17:50 52.49258 -1.09663 23600 ft 352 kts 323°
2026-05-04 17:50 52.51339 -1.11768 23195 ft 351 kts 323°
2026-05-04 17:51 52.53409 -1.13870 22809 ft 350 kts 324°
2026-05-04 17:51 52.55477 -1.15972 22438 ft 348 kts 324°
2026-05-04 17:51 52.57533 -1.18058 22079 ft 347 kts 324°
2026-05-04 17:51 52.59583 -1.20132 21719 ft 345 kts 324°
2026-05-04 17:52 52.61624 -1.22199 21381 ft 344 kts 325°
2026-05-04 17:52 52.63658 -1.24259 21032 ft 343 kts 325°
2026-05-04 17:52 52.65683 -1.26313 20690 ft 341 kts 325°
2026-05-04 17:52 52.67701 -1.28364 20345 ft 340 kts 325°
2026-05-04 17:53 52.69715 -1.30413 20003 ft 339 kts 326°
2026-05-04 17:53 52.71725 -1.32459 19619 ft 340 kts 326°
2026-05-04 17:53 52.73734 -1.34505 19275 ft 339 kts 326°
2026-05-04 17:53 52.75714 -1.36522 18905 ft 339 kts 326°
2026-05-04 17:54 52.77720 -1.38567 18512 ft 339 kts 326°
2026-05-04 17:54 52.79724 -1.40612 18079 ft 339 kts 326°
2026-05-04 17:54 52.81727 -1.42657 17637 ft 338 kts 326°
2026-05-04 17:54 52.83725 -1.44701 17221 ft 337 kts 326°
2026-05-04 17:55 52.85711 -1.46734 16818 ft 335 kts 327°
2026-05-04 17:55 52.87719 -1.48791 16416 ft 334 kts 327°
2026-05-04 17:55 52.89661 -1.50783 16033 ft 332 kts 327°
2026-05-04 17:55 52.91624 -1.52799 15644 ft 331 kts 327°
2026-05-04 17:56 52.93573 -1.54802 15259 ft 329 kts 327°
2026-05-04 17:56 52.95514 -1.56799 14877 ft 328 kts 327°
2026-05-04 17:56 52.97445 -1.58788 14501 ft 327 kts 327°
2026-05-04 17:56 52.99375 -1.60778 14104 ft 325 kts 327°
2026-05-04 17:57 53.01396 -1.62448 13702 ft 324 kts 337°
2026-05-04 17:57 53.03527 -1.63734 13009 ft 323 kts 339°
2026-05-04 17:57 53.05631 -1.64925 12532 ft 316 kts 340°
2026-05-04 17:57 53.07685 -1.66077 12133 ft 307 kts 340°
2026-05-04 17:58 53.09684 -1.67194 11751 ft 299 kts 340°
2026-05-04 17:58 53.11631 -1.68279 11382 ft 292 kts 340°
2026-05-04 17:58 53.13530 -1.69338 11029 ft 284 kts 340°
2026-05-04 17:58 53.15385 -1.70371 10685 ft 278 kts 340°
2026-05-04 17:59 53.17196 -1.71380 10349 ft 271 kts 340°
2026-05-04 17:59 53.18968 -1.72368 10028 ft 265 kts 340°
2026-05-04 17:59 53.22399 -1.74284 9350 ft 255 kts 340°
2026-05-04 18:00 53.24059 -1.75213 9032 ft 249 kts 340°
2026-05-04 18:00 53.25684 -1.76128 8733 ft 245 kts 340°
2026-05-04 18:00 53.27290 -1.77037 8447 ft 243 kts 340°
2026-05-04 18:00 53.28887 -1.77945 8153 ft 242 kts 340°
2026-05-04 18:01 53.30475 -1.78850 7881 ft 240 kts 340°
2026-05-04 18:01 53.32053 -1.79752 7623 ft 240 kts 340°
2026-05-04 18:01 53.33632 -1.80660 7331 ft 240 kts 340°
2026-05-04 18:02 53.36765 -1.82472 6767 ft 236 kts 340°
2026-05-04 18:02 53.38307 -1.83372 6484 ft 233 kts 340°
2026-05-04 18:02 53.39827 -1.84264 6217 ft 230 kts 340°
2026-05-04 18:02 53.41325 -1.85142 5971 ft 227 kts 340°
2026-05-04 18:03 53.42792 -1.86001 5725 ft 220 kts 340°
2026-05-04 18:03 53.44208 -1.86830 5499 ft 211 kts 340°
2026-05-04 18:03 53.45560 -1.87619 5265 ft 200 kts 340°
2026-05-04 18:03 53.46727 -1.88641 5075 ft 188 kts 313°
2026-05-04 18:04 53.47268 -1.90580 4945 ft 189 kts 277°
2026-05-04 18:04 53.47299 -1.92801 4739 ft 192 kts 270°
2026-05-04 18:04 53.47252 -1.97238 4231 ft 188 kts 270°
2026-05-04 18:05 53.47224 -1.99390 4044 ft 181 kts 270°
2026-05-04 18:05 53.47183 -2.01482 3892 ft 182 kts 263°
2026-05-04 18:05 53.46654 -2.03426 3687 ft 187 kts 237°
2026-05-04 18:05 53.45945 -2.05285 3432 ft 188 kts 239°
2026-05-04 18:06 53.44456 -2.08689 2923 ft 174 kts 233°
2026-05-04 18:06 53.43709 -2.10245 2681 ft 169 kts 233°
2026-05-04 18:06 53.42981 -2.11750 2467 ft 164 kts 233°
2026-05-04 18:07 53.42265 -2.13231 2248 ft 163 kts 233°
2026-05-04 18:07 53.41560 -2.14689 2033 ft 161 kts 234°
2026-05-04 18:07 53.40852 -2.16153 1807 ft 163 kts 233°
2026-05-04 18:07 53.40141 -2.17623 1592 ft 162 kts 233°
2026-05-04 18:08 53.39450 -2.19053 1349 ft 153 kts 233°
2026-05-04 18:08 53.38791 -2.20416 1136 ft 148 kts 233°
2026-05-04 18:08 53.38146 -2.21753 981 ft 146 kts 233°
2026-05-04 18:08 53.37506 -2.23079 744 ft 145 kts 232°
2026-05-04 18:09 53.36251 -2.25677 321 ft 143 kts 231°
2026-05-04 18:09 53.35237 -2.27779 230 ft 63 kts 231°
2026-05-04 18:10 53.35097 -2.28138 230 ft 8 kts 288°
2026-05-04 18:10 53.35141 -2.28197 231 ft 8 kts 347°
2026-05-04 18:10 53.35198 -2.28197 231 ft 8 kts
2026-05-04 18:10 53.35254 -2.28191 232 ft 8 kts
2026-05-04 18:11 53.35304 -2.28161 232 ft 8 kts 40°
2026-05-04 18:11 53.35343 -2.28100 232 ft 8 kts 42°
2026-05-04 18:11 53.35381 -2.28042 232 ft 7 kts 43°
2026-05-04 18:11 53.35417 -2.27984 232 ft 8 kts 43°
2026-05-04 18:12 53.35465 -2.27908 232 ft 11 kts 44°
2026-05-04 18:12 53.35523 -2.27813 232 ft 11 kts 43°
2026-05-04 18:12 53.35569 -2.27740 232 ft 8 kts 46°
2026-05-04 18:12 53.35606 -2.27679 232 ft 8 kts 43°
2026-05-04 18:13 53.35650 -2.27608 232 ft 10 kts 48°
2026-05-04 18:13 53.35697 -2.27511 233 ft 12 kts 53°
2026-05-04 18:13 53.35808 -2.27279 232 ft 13 kts 52°
2026-05-04 18:14 53.35798 -2.27138 235 ft 14 kts 107°
2026-05-04 18:14 53.35830 -2.26993 235 ft 13 kts 62°
2026-05-04 18:14 53.35877 -2.26882 233 ft 10 kts 49°
2026-05-04 18:15 53.35924 -2.26938 232 ft 6 kts 279°
2026-05-04 18:15 53.35927 -2.26988 232 ft 0 kts 276°